Regional Weather Roundup
Issued by NWS State College, PA

Home | Current Version | Previous Version | Text Only | Print | Product List | Glossary On
Versions: 1 2 3 4 5 6 7 8 9 10 11 12 13 14 15 16 17 18 19 20 21 22 23 24 25 26 27 28 29 30 31 32 33 34 35 36 37 38 39 40 41 42 43 44 45 46 47 48 49 50
000
ASUS41 KCTP 182210
RWRCTP

REGIONAL WEATHER ROUNDUP
NATIONAL WEATHER SERVICE STATE COLLEGE PA
600 PM EDT WED OCT 18 2017

Note: "fair" indicates few or no clouds below 12,000 feet with no
significant weather and/or obstructions to visibility.

* = STATION THAT DOES NOT REPORT PRECIPITATION /E.G. RAIN...SNOW...ETC/
    THUNDER OR FOG.

PAZ002>004-007>009-013>016-020>023-029>032-182300-
WESTERN PENNSYLVANIA

CITY           SKY/WX    TMP DP  RH WIND       PRES   REMARKS
ERIE           CLEAR     65  52  62 NW5       30.19S
MEADVILLE      CLEAR     64  41  42 S6        30.22S
FRANKLIN*      CLEAR     63  41  44 S8        30.23S
NEW CASTLE     FAIR      68  42  38 SW3       30.22S
BEAVER COUNTY  CLEAR     68  41  37 S5        30.22S
BUTLER*        CLEAR    N/A N/A N/A S5        30.23S
PITTSBURGH INT MOCLDY    69  38  32 SW6       30.23S
PITTSBURGH     CLEAR     68  38  33 S6        30.22F
INDIANA*       CLEAR     68  45  42 CALM      30.26S
LATROBE        CLEAR     70  39  32 W9        30.23F
WASHINGTON CO* CLEAR     68  41  37 S3        30.25S
$$

PAZ004>006-010>012-017>019-024>028-033>037-041-042-045-046-049>053-182300-
CENTRAL PENNSYLVANIA

CITY           SKY/WX    TMP DP  RH WIND       PRES   REMARKS
BRADFORD       CLEAR     64  37  36 SW5       30.24S
DUBOIS         CLEAR     65  35  33 SW6       30.24S
CLEARFIELD     CLEAR     68  41  37 S6        30.24S
JOHNSTOWN      CLEAR     62  38  40 S10       30.26F
ALTOONA        CLEAR     65  32  29 S7        30.27F
STATE COLLEGE  CLEAR     66  43  42 S8        30.25F
WILLIAMSPORT   CLEAR     65  51  60 CALM      30.22S
SELINSGROVE    CLEAR     66  49  54 S3        30.25F
FT INDIANTOWN  CLEAR     66  50  57 CALM      30.26F
CAPITAL CITY   CLEAR     68  41  37 S5        30.26S
HARRISBURG     CLEAR     64  50  60 VRB5      30.26S
YORK           CLEAR     65  45  48 SW3       30.27F
$$

PAZ038>040-043-044-047-048-054-055-060>062-067>071-182300-
EASTERN PENNSYLVANIA

CITY           SKY/WX    TMP DP  RH WIND       PRES   REMARKS
SCRANTON       CLEAR     66  42  41 SW7       30.25S
MOUNT POCONO   CLEAR     62  41  46 W5        30.27S
ALLENTOWN      CLEAR     66  45  46 SW7       30.26S
QUAKERTOWN*    CLEAR     66  46  48 CALM      30.28S
READING        CLEAR     66  47  50 SW6       30.26S
LANCASTER      CLEAR     69  45  41 CALM      30.26F
COATESVILLE    CLEAR     64  48  55 CALM      30.29F
POTTSTOWN      CLEAR     66  44  45 SW3       30.29S
BLUE BELL      CLEAR     64  45  48 W3        30.29S
DOYLESTOWN     CLEAR     67  45  45 CALM      30.26S
WILLOW GROVE   NOT AVBL
NORTH PHILA    CLEAR     69  46  43 SW5       30.28S
PHILADELPHIA   CLEAR     69  46  43 SW7       30.28S
$$



USA.gov is the U.S. government's official web portal to all federal, state and local government web resources and services.